Погода в Шереметьево

Россия / Московская область     55°58′00″N   37°24′56″E
темп.,
°C
ветер,
м/с
пор.,
м/с
влажн.,
%
обл.,
%
осадки,
мм/ч
давл.,
гПа
погр.,
м
20 января, чт
чт2000:00−7ююз41295100 0.1 1010317
03:00−5ююз51394100 0.1 1008439
06:00−5ююз51394100 0.1 1006510
09:00−4ююз51194100 0.1 1005561
12:00−3ююз61294100 0.1 1004579
15:00−2ююз61493100 0.1 1002741
18:00−4ю71493100 0.1 1001678
21:00−4ю61493100 0.2 1000759
21 января, пт
пт2100:00−4ю61395100 1.5 1000721
03:00−4ю51296100 2.3 1000621
06:00−4ююв51095100 0.2 999507
09:00−5ююв41095100 0.3 999416
12:00−5юв5996100 1.1 999486
15:00−5юв5995100 2.3 998546
18:00−6юв4995100 0.7 998423
21:00−6юв4896100 1.1 999299
22 января, сб
сб2200:00−7вюв3696100 0.4 1000214
03:00−7вюв3696100 0.8 1001224
06:00−11вюв2499100 0.1 100253
09:00−14в269986 0.2 100596
12:00−8вюв3694100 0.1 1007271
15:00−5в279699 0.4 1008390
18:00−5юв379798 0.6 1012283
21:00−8вюв379696 0.8 1015201
23 января, вс
вс2300:00−10в369674 0.1 1018156
03:00−14всв249995 0.2 102066
06:00−13всв259783 0.1 1021125
09:00−15св239974 0.1 102429
12:00−9всв239297 0.1 1026214
15:00−8св239497 0.1 1027205
18:00−15св2210088 0.0 103011
21:00−18ссв2210088 0.0 103226
24 января, пн
пн2400:00−19ссв2210090 0.0 103421
03:00−18с23100100 0.0 103437
06:00−19ссв24100100 0.0 103341
09:00−17ссв36100100 0.0 103487
12:00−10св359368 0.0 1032180
15:00−8св259389 0.0 1030256
18:00−14ссв229985 0.0 102925
21:00−17с2210091 0.0 102914